Weather History for EICK - January, 2013

Change the Weather History Date:

Monday, January 28, 2013

  Actual Average Record
Temperature  
Mean Temperature 42 °F -  
Max Temperature 51 °F 46 °F - ()
Min Temperature 33 °F 37 °F - ()
Degree Days  
Heating Degree Days 23    
Moisture  
Dew Point 41 °F    
Average Humidity 87    
Maximum Humidity 100    
Minimum Humidity 74    
Precipitation  
Precipitation 0.35 in 0.15 in - ()
Sea Level Pressure  
Sea Level Pressure 29.41 in    
Wind  
Wind Speed 17 mph ()    
Max Wind Speed 40 mph    
Max Gust Speed 61 mph    
Visibility 6.2 miles    
Events Rain    
T = Trace of Precipitation, MM = Missing Value Source: Averaged Metar Reports

Daily Weather History Graph

Daily Weather History Graph

Search for Another Location

Airport or City:

Trip Planner

Search our weather history database for the weather conditions in past years. The results will help you decide how hot, cold, wet, or windy it might be!

Date:

Astronomy

Jan. 28, 2013 Rise Set
Actual Time 8:19 AM GMT 5:15 PM GMT
Civil Twilight 7:42 AM GMT 5:52 PM GMT
Nautical Twilight 7:01 AM GMT 6:33 PM GMT
Astronomical Twilight 6:21 AM GMT 7:12 PM GMT
Moon 7:15 PM GMT (1/28) 8:21 AM GMT (1/28)
Length of Visible Light 10h 10m
Length of Day
8h 56m
Full, 98% of the Moon is Illuminated
Jan 28
Full
Feb 3
Last Quarter
Feb 10
New
Feb 17
First Quarter
Feb 25
Full

Hourly Weather History & Observations

Time (GMT) Temp. Windchill Dew Point Humidity Pressure Visibility Wind Dir Wind Speed Gust Speed Precip Events Conditions
12:00 AM 34 °F - 33 °F 92% 29.60 in 12 mi SW 8.9 mph - -   Partly Cloudy
12:00 AM 33.8 °F 26.4 °F 32.0 °F 93% 29.56 in 6.2 mi SW 9.2 mph - N/A   Partly Cloudy
12:30 AM 33.8 °F 26.4 °F 32.0 °F 93% 29.59 in 6.2 mi SW 9.2 mph - N/A   Partly Cloudy
1:00 AM 35.6 °F 27.1 °F 33.8 °F 93% 29.59 in 6.2 mi SW 12.7 mph - N/A   Partly Cloudy
1:30 AM 39.2 °F 30.5 °F 35.6 °F 87% 29.59 in 6.2 mi WSW 16.1 mph - N/A   Scattered Clouds
2:00 AM 37.4 °F 29.8 °F 33.8 °F 87% 29.62 in 6.2 mi WSW 11.5 mph - N/A   Partly Cloudy
2:30 AM 35.6 °F 27.5 °F 33.8 °F 93% 29.59 in 6.2 mi SW 11.5 mph - N/A   Partly Cloudy
3:00 AM 35.6 °F 27.1 °F 33.8 °F 93% 29.59 in 6.2 mi SW 12.7 mph - N/A   Partly Cloudy
3:30 AM 37.4 °F 30.3 °F 33.8 °F 87% 29.59 in 6.2 mi SW 10.4 mph - N/A   Partly Cloudy
4:00 AM 37.4 °F 28.9 °F 35.6 °F 93% 29.59 in 6.2 mi SW 13.8 mph - N/A   Partly Cloudy
4:30 AM 37.4 °F 29.3 °F 35.6 °F 93% 29.59 in 6.2 mi SW 12.7 mph - N/A   Partly Cloudy
5:00 AM 37.4 °F 30.8 °F 35.6 °F 93% 29.56 in 6.2 mi SSW 9.2 mph - N/A   Partly Cloudy
5:30 AM 41.0 °F 34.3 °F 37.4 °F 87% 29.56 in 6.2 mi SSW 11.5 mph - N/A   Scattered Clouds
6:00 AM 42 °F - 39 °F 84% 29.57 in 16 mi SSW 15.7 mph - -   Scattered Clouds
6:00 AM 42.8 °F 35.1 °F 39.2 °F 87% 29.53 in 6.2 mi SSW 16.1 mph - N/A   Mostly Cloudy
6:30 AM 42.8 °F 34.3 °F 39.2 °F 87% 29.53 in 6.2 mi SSW 19.6 mph 31.1 mph N/A   Mostly Cloudy
7:00 AM 44.6 °F 36.6 °F 41.0 °F 87% 29.50 in 6.2 mi SSW 19.6 mph - N/A Rain Light Rain
7:30 AM 42.8 °F 33.3 °F 41.0 °F 93% 29.47 in 6.2 mi SSW 24.2 mph - N/A Rain Light Rain
8:00 AM 44.6 °F 35.9 °F 42.8 °F 93% 29.44 in 6.2 mi SSW 23.0 mph 35.7 mph N/A   Mostly Cloudy
8:30 AM 44.6 °F 35.7 °F 42.8 °F 93% 29.44 in 6.2 mi South 24.2 mph 40.3 mph N/A   Mostly Cloudy
9:00 AM 46.4 °F 37.4 °F 42.8 °F 87% 29.42 in 6.2 mi South 28.8 mph 44.9 mph N/A Rain Light Rain Showers
9:30 AM 44.6 °F 35.3 °F 44.6 °F 100% 29.39 in 3.1 mi South 26.5 mph 38.0 mph N/A Rain Light Rain Showers
10:00 AM 46.4 °F 37.7 °F 46.4 °F 100% 29.33 in 2.8 mi South 26.5 mph 40.3 mph N/A Rain Light Rain
10:30 AM 46.4 °F 37.2 °F 46.4 °F 100% 29.27 in 1.1 mi South 29.9 mph 43.7 mph N/A Rain Rain
11:00 AM 46.4 °F 36.9 °F 46.4 °F 100% 29.24 in 1.6 mi SSW 32.2 mph 44.9 mph N/A Rain Rain
11:30 AM 48.2 °F - 48.2 °F 100% 29.21 in 1.9 mi SSW 35.7 mph 50.6 mph N/A Rain Rain
12:00 PM 49 °F - 49 °F 100% 29.24 in 6 mi SSW 40.3 mph - - Rain Light Rain
12:00 PM 48.2 °F - 48.2 °F 100% 29.21 in 5.6 mi SSW 40.3 mph 56.4 mph N/A Rain Light Rain
12:30 PM 50.0 °F - 50.0 °F 100% 29.21 in 5.6 mi SW 40.3 mph 61.0 mph N/A Rain Light Rain
1:00 PM 51.8 °F - 48.2 °F 88% 29.24 in 6.2 mi SW 31.1 mph 47.2 mph N/A   Mostly Cloudy
1:30 PM 51.8 °F - 46.4 °F 82% 29.24 in 6.2 mi SW 29.9 mph 49.5 mph N/A   Mostly Cloudy
2:00 PM 50.0 °F - 46.4 °F 87% 29.24 in 6.2 mi SW 25.3 mph 44.9 mph N/A   Mostly Cloudy
2:30 PM 50.0 °F - 42.8 °F 76% 29.27 in 6.2 mi WSW 27.6 mph 44.9 mph N/A   Mostly Cloudy
3:00 PM 50.0 °F - 44.6 °F 82% 29.27 in 6.2 mi WSW 18.4 mph 49.5 mph N/A   Mostly Cloudy
3:30 PM 50.0 °F - 42.8 °F 76% 29.27 in 6.2 mi WSW 29.9 mph 43.7 mph N/A   Mostly Cloudy
4:00 PM 50.0 °F - 42.8 °F 76% 29.27 in 6.2 mi SW 31.1 mph 43.7 mph N/A   Mostly Cloudy
4:30 PM 50.0 °F - 42.8 °F 76% 29.27 in 6.2 mi SW 27.6 mph 42.6 mph N/A   Mostly Cloudy
5:00 PM 50.0 °F - 42.8 °F 76% 29.27 in 6.2 mi WSW 29.9 mph 47.2 mph N/A   Mostly Cloudy
5:30 PM 48.2 °F - 42.8 °F 82% 29.30 in 6.2 mi WSW 28.8 mph 47.2 mph N/A   Mostly Cloudy
6:00 PM 49 °F - 43 °F 74% 29.34 in 10 mi WSW 26.8 mph - -   Partly Cloudy
6:00 PM 50.0 °F - 42.8 °F 76% 29.33 in 6.2 mi WSW 26.5 mph 39.1 mph N/A   Mostly Cloudy
6:30 PM 48.2 °F - 41.0 °F 76% 29.33 in 6.2 mi WSW 31.1 mph 48.3 mph N/A   Mostly Cloudy
7:00 PM 48.2 °F - 41.0 °F 76% 29.33 in 6.2 mi WSW 26.5 mph 48.3 mph N/A   Mostly Cloudy
7:30 PM 48.2 °F - 41.0 °F 76% 29.36 in 6.2 mi WSW 27.6 mph 42.6 mph N/A   Mostly Cloudy
8:00 PM 48.2 °F - 41.0 °F 76% 29.39 in 6.2 mi WSW 25.3 mph 39.1 mph N/A   Mostly Cloudy
8:30 PM 46.4 °F 38.1 °F 41.0 °F 81% 29.42 in 6.2 mi WSW 24.2 mph - N/A   Mostly Cloudy
9:00 PM 46.4 °F 38.3 °F 41.0 °F 81% 29.42 in 6.2 mi WSW 23.0 mph - N/A   Mostly Cloudy
9:30 PM 46.4 °F 39.8 °F 41.0 °F 81% 29.44 in 6.2 mi WSW 16.1 mph - N/A   Mostly Cloudy
10:00 PM 46.4 °F 41.1 °F 41.0 °F 81% 29.44 in 6.2 mi WSW 11.5 mph - N/A   Mostly Cloudy
10:30 PM 44.6 °F 40.2 °F 41.0 °F 87% 29.47 in 6.2 mi SW 8.1 mph - N/A   Mostly Cloudy
11:00 PM 46.4 °F 41.9 °F 41.0 °F 81% 29.50 in 6.2 mi SW 9.2 mph - N/A   Mostly Cloudy
11:30 PM 44.6 °F 40.2 °F 41.0 °F 87% 29.50 in 6.2 mi SW 8.1 mph - N/A   Mostly Cloudy